Itamari, Brazil
Current Conditions -  °F | °C
As of 3:00 AM on Monday 24 Nov 2014 (Local Time) from SBIL Reporting Station
Rain Showers Rain Showers  
Wind Chill: 73°   Ceiling: Unl
Heat Index: 73°   Visibility: 5mi
Dew Point: 72°   Wind: 7mph
Humidity: 94%   Direction: 260°W
Pressure: 29.94"   Gusts: NA
Location:  13.79°S, 39.67°W
Report Text: SBIL 240600Z 26006KT 8000 VCSH SCT015 SCT025 23/22 Q1014
Loading
Personal Weather Stations






























Interactive Weather Map New forecast layout! Learn more

10-Day Weather Forecast

Advertisements
Track Severe Weather on mobile